CW6679 Weather Reports


time (UTC)temp
C
wind
direction
speed
KPH
gust
KPH
rain 1hr
cm
rain 24hr
cm
rain mn
cm
humidity
%
barometer
mb
20260906171544 23 204 3.2 11.3 0.00 0.00 0.00 83 1019.4
20260906170047 23 204 3.2 11.3 0.00 0.00 0.00 83 1019.5
20260906164548 23 233 1.6 11.3 0.00 0.00 0.00 85 1019.6
20260906163047 23 223 3.2 9.7 0.00 0.00 0.00 86 1019.5
20260906161542 23 143 1.6 8.0 0.00 0.00 0.00 86 1019.5
20260906160055 23 156 3.2 8.0 0.00 0.00 0.00 86 1019.5
20260906154547 22 175 4.8 8.0 0.00 0.00 0.00 87 1019.6
20260906153042 22 180 1.6 9.7 0.00 0.00 0.00 89 1019.8
20260906151557 22 0 1.6 4.8 0.00 0.00 0.00 90 1019.9
20260906150047 21 0 1.6 6.4 0.00 0.00 0.00 91 1019.8
20260906144544 21 152 3.2 8.0 0.00 0.00 0.00 91 1019.7
20260906143043 21 169 1.6 6.4 0.00 0.00 0.00 92 1019.9
20260906141547 21 211 1.6 8.0 0.00 0.00 0.00 93 1019.8
20260906140050 21 65 1.6 8.0 0.00 0.00 0.00 93 1019.8
20260906134544 20 183 1.6 8.0 0.00 0.00 0.00 93 1019.8
20260906133059 20 275 1.6 6.4 0.00 0.00 0.00 93 1019.5
20260906131557 20 148 3.2 12.9 0.00 0.00 0.00 94 1019.1
20260906130104 20 0 3.2 8.0 0.00 0.00 0.00 94 1019.0
20260906124546 20 206 0.0 6.4 0.00 0.00 0.00 94 1018.8
20260906123049 20 202 1.6 11.3 0.00 0.00 0.00 94 1018.7
20260906121546 20 214 1.6 9.7 0.00 0.00 0.00 95 1018.7
20260906120047 20 214 3.2 11.3 0.00 0.00 0.00 95 1018.6
20260906114548 20 204 1.6 8.0 0.00 0.00 0.00 95 1018.3
20260906113047 20 0 0.0 3.2 0.00 0.00 0.00 95 1018.4
20260906111552 20 0 0.0 4.8 0.00 0.00 0.00 95 1018.2
20260906110051 20 191 1.6 4.8 0.00 0.00 0.00 95 1018.1
20260906104548 20 248 0.0 4.8 0.00 0.00 0.00 95 1018.2
20260906103048 20 226 1.6 6.4 0.00 0.00 0.00 95 1018.4
20260906101548 20 176 0.0 3.2 0.00 0.00 0.00 95 1018.1
20260906100047 20 0 0.0 1.6 0.00 0.00 0.00 94 1018.1
20260906094604 20 0 0.0 3.2 0.00 0.00 0.00 94 1017.9
20260906093059 20 171 0.0 3.2 0.00 0.00 0.00 94 1017.7
20260906091547 20 0 0.0 3.2 0.00 0.00 0.00 94 1017.4
20260906090109 20 0 1.6 12.9 0.00 0.00 0.00 93 1017.1
20260906084554 21 239 1.6 4.8 0.00 0.00 0.00 93 1017.2
20260906083048 21 275 1.6 4.8 0.00 0.00 0.00 93 1017.1
20260906081546 21 166 1.6 8.0 0.00 0.00 0.00 93 1017.1
20260906080043 21 0 1.6 8.0 0.00 0.00 0.00 92 1017.2
20260906074553 21 168 1.6 6.4 0.00 0.00 0.00 92 1017.1
20260906073049 21 82 1.6 6.4 0.00 0.00 0.00 92 1017.1
20260906071547 21 154 0.0 6.4 0.00 0.00 0.00 91 1017.4
20260906070049 21 126 0.0 4.8 0.00 0.00 0.00 91 1017.4
20260906064549 21 0 0.0 4.8 0.00 0.00 0.00 91 1017.5
20260906063054 21 38 0.0 6.4 0.00 0.00 0.00 91 1017.7
20260906061554 22 308 0.0 3.2 0.00 0.00 0.00 91 1018.0
20260906060048 22 0 0.0 4.8 0.00 0.00 0.00 90 1017.8
20260906054546 22 152 1.6 8.0 0.00 0.00 0.00 91 1017.7
20260906053105 22 348 0.0 3.2 0.00 0.00 0.00 90 1017.6
20260906051548 22 0 0.0 3.2 0.00 0.00 0.00 90 1017.6
20260906050047 22 216 0.0 4.8 0.00 0.00 0.00 89 1017.4
20260906044542 23 229 0.0 6.4 0.00 0.00 0.00 89 1017.4
20260906043039 23 0 0.0 4.8 0.00 0.00 0.00 89 1017.3
20260906041553 23 0 0.0 4.8 0.00 0.00 0.00 89 1017.2
20260906040043 23 49 0.0 4.8 0.00 0.00 0.00 89 1017.2
20260906034544 23 0 0.0 3.2 0.00 0.00 0.00 90 1017.2
20260906033047 23 25 0.0 4.8 0.00 0.00 0.00 90 1017.3
20260906031544 23 0 0.0 4.8 0.00 0.00 0.00 91 1017.2
20260906030048 23 0 0.0 4.8 0.00 0.00 0.00 90 1017.0
20260906024607 23 0 0.0 3.2 0.00 0.00 0.00 90 1016.8
20260906023041 23 25 1.6 3.2 0.00 0.00 0.00 90 1016.5
20260906021542 23 0 0.0 3.2 0.00 0.00 0.00 89 1016.4
20260906020050 24 286 0.0 3.2 0.00 0.00 0.00 88 1016.3
20260906014551 24 0 0.0 1.6 0.00 0.00 0.00 87 1016.1
20260906013041 25 0 0.0 3.2 0.00 0.00 0.00 86 1015.9
20260906011557 25 173 0.0 8.0 0.00 0.00 0.00 85 1015.7
20260906010124 25 0 0.0 4.8 0.00 0.00 0.00 85 1015.7
20260906004547 25 48 0.0 4.8 0.00 0.00 0.00 85 1015.7
20260906003050 25 348 1.6 4.8 0.00 0.00 0.00 84 1015.7
20260906001601 25 0 0.0 4.8 0.00 0.00 0.00 84 1015.6
20260906000049 26 0 0.0 6.4 0.00 0.00 0.00 83 1015.5
20260905234544 26 157 0.0 6.4 0.00 0.00 0.00 83 1015.5
20260905233048 26 0 0.0 4.8 0.00 0.00 0.00 82 1015.5
20260905231550 26 56 1.6 9.7 0.00 0.00 0.00 81 1015.4
20260905230048 27 102 1.6 8.0 0.00 0.00 0.00 81 1015.4
20260905224550 27 42 1.6 6.4 0.00 0.00 0.00 80 1015.4
20260905223048 27 354 3.2 8.0 0.00 0.00 0.00 82 1015.0
20260905221551 28 57 3.2 9.7 0.00 0.00 0.00 80 1014.8
20260905220048 29 15 3.2 11.3 0.00 0.00 0.00 78 1014.6
20260905214547 30 354 1.6 11.3 0.00 0.00 0.00 78 1014.4
20260905213052 30 96 1.6 11.3 0.00 0.00 0.00 78 1014.4
20260905211549 30 13 1.6 9.7 0.00 0.00 0.00 78 1014.5
20260905210048 29 8 3.2 11.3 0.00 0.00 0.00 80 1014.8
20260905204546 30 0 1.6 9.7 0.00 0.00 0.00 80 1015.0
20260905203053 30 80 3.2 9.7 0.00 0.00 0.00 79 1015.3
20260905201558 30 57 3.2 11.3 0.00 0.00 0.00 79 1015.4
20260905200050 29 12 3.2 12.9 0.00 0.00 0.00 81 1015.5
20260905194548 28 355 3.2 9.7 0.00 0.00 0.00 82 1015.6
20260905193042 28 45 4.8 16.1 0.00 0.00 0.00 82 1015.7
20260905191547 28 44 3.2 14.5 0.00 0.00 0.00 83 1016.3
20260905190104 28 27 4.8 12.9 0.00 0.00 0.00 83 1016.5
20260905184548 28 352 3.2 9.7 0.00 0.00 0.00 84 1016.6
20260905183107 29 17 3.2 11.3 0.00 0.00 0.00 84 1016.7
20260905181547 29 164 3.2 8.0 0.00 0.00 0.00 83 1016.5
20260905180049 30 49 3.2 9.7 0.00 0.00 0.00 83 1016.7
20260905174542 30 20 1.6 4.8 0.00 0.00 0.00 82 1016.8
20260905173046 30 25 1.6 6.4 0.00 0.00 0.00 80 1016.4